Regional Weather Roundup
Issued by NWS

Home | Current Version | Previous Version | Graphics & Text | Print | Product List | Glossary On
Versions: 1 2 3 4 5 6 7 8 9 10 11 12 13 14 15 16 17 18 19 20 21 22 23 24 25 26 27 28 29 30 31 32 33 34 35 36 37 38 39 40 41 42 43 44 45 46 47 48 49 50
000
ASUS43 KFSD 300502
RWRSD

WEATHER ROUNDUP FOR SOUTH DAKOTA
NATIONAL WEATHER SERVICE SIOUX FALLS SD
1200 AM CDT SAT MAY 30 2015

NOTE: "FAIR" INDICATES FEW OR NO CLOUDS BELOW 12,000 FEET WITH NO
SIGNIFICANT WEATHER AND/OR OBSTRUCTIONS TO VISIBILITY.


SDZ001>005-009-010-012>017-300600-
NORTHWEST AND NORTH CENTRAL SOUTH DAKOTA

CITY           SKY/WX    TMP DP  RH WIND       PRES   REMARKS
BUFFALO          N/A     42  35  76 E9        30.22S
FAITH            N/A     43  35  73 N5        30.29S
MOBRIDGE       CLEAR     41  38  89 N7        30.26R
$$

SDZ012>016-024>037-041>051-057-063-072>074-300600-
SOUTHWEST AND SOUTH CENTRAL SOUTH DAKOTA

CITY           SKY/WX    TMP DP  RH WIND       PRES   REMARKS
RAPID CTY ARPT CLEAR     41  36  82 CALM      30.30R
PIERRE         PTCLDY    45  39  79 N9        30.26R
CUSTER         CLOUDY    43  38  82 E5        30.30S
ELLSWORTH AFB  CLEAR     45  38  76 S3        30.29S
PHILIP         PTCLDY    42  37  82 N9        30.29S
PINE RIDGE     CLEAR     38  36  92 E6        30.29S
WINNER         FAIR      41  36  82 NW8       30.26R
$$

SDZ004>011-016>023-039-040-300600-
NORTHEAST SOUTH DAKOTA

CITY           SKY/WX    TMP DP  RH WIND       PRES   REMARKS
ABERDEEN       MOCLDY    48  38  68 NE13      30.25R
WATERTOWN      PTCLDY    44  38  79 N16G24    30.19S
BROOKINGS      MOCLDY    46  41  81 N15       30.18R
SISSETON         N/A     47  39  74 N17       30.22R
$$

SDZ017-020-022-023-036>040-048>070-300600-
SOUTHEAST SOUTH DAKOTA

CITY           SKY/WX    TMP DP  RH WIND       PRES   REMARKS
SIOUX FALLS    MOCLDY    48  43  82 N17G23    30.14S
HURON          PTCLDY    43  39  86 N8        30.22R
CHAMBERLAIN    PTCLDY    46  43  87 N7        30.25S
MITCHELL       CLOUDY    50  42  74 N17       30.21S
YANKTON        MOCLDY    50  45  81 N9        30.16R
$$

ABBREVIATIONS USED IN REMARKS
   TC - TEMPERATURE IN CELSIUS
  WCI - WIND CHILL INDEX
   HX - HEAT INDEX
  VSB - VISIBILITY



USA.gov is the U.S. government's official web portal to all federal, state and local government web resources and services.